Portada
METAR-TAF:

METAR-TAF

Aeropuertos :

Aeropuerto de Rieti

Rieti, Italia

latitud: 42-25N, longitud: 012-51E, altitud: 389 m

Observación

El informe se hizo hace 9 horas y 39 minutos, a las 17:50 UTC
Viento 5 kt del noroeste
Temperatura 19°C
Humedad 52%
Presión 1013 hPa
Visibilidad 10 km o más
sin nubes por debajo de 1500 m y sin presencia de cumulonimbus.

METAR: LIQN 311750Z 32005KT CAVOK 19/09 Q1013

Hora: 05:29 (03:29 UTC)


TAF: falta

Observaciones y pronósticos meteorológicos de más de 4000 aeropuertos (mensajes METAR y TAF).

Los puntos amarillos y rojos representan las estaciones disponibles.

Ponga el ratón en el punto deseado para ver el nombre de la estación.

Haga clic para ver las observaciones y los pronósticos meteorológicos.

Para cambiar el mapa : haga clic en los botones verdes con una cruz de color negro para hacer un zoom, en el botón verde con un guión para alejar o en las flechas verdes para mapas adyacentes.


METAR-TAF: